Wind_Speed
18 17 14 14 13 10 10 10 11 9 7 8 6 7 8 6 4 3 4 6 8 11 12 15 18 18 20 21
16 19 17 14 14 13 10 12 12 9 10 7 8 8 9 6 5 4 5 7 9 10 12 16 16 17 20 21
15 17 19 17 15 15 13 13 13 11 11 9 9 10 9 7 6 5 5 7 8 9 13 13 14 18 20 21
15 16 18 19 18 16 15 13 14 13 12 12 10 11 10 8 7 6 7 8 7 9 12 11 14 18 20 22
15 15 17 18 19 18 18 15 14 15 13 13 12 13 12 9 7 6 7 6 5 9 9 11 15 18 21 22
17 16 17 18 19 20 17 17 15 15 16 14 14 15 14 11 8 6 6 4 4 6 7 11 15 19 23 23
17 19 18 18 19 20 19 18 18 16 17 16 16 16 15 12 9 7 5 4 3 4 6 11 14 18 22 23
18 19 18 20 18 21 21 20 19 17 17 17 17 18 17 14 11 8 5 4 3 2 5 9 14 18 22 24
20 19 19 20 22 20 21 22 20 18 18 19 18 20 19 17 13 10 6 5 4 3 5 8 13 17 22 25
23 21 20 20 21 22 20 20 20 19 19 20 21 22 21 18 16 12 8 6 5 5 5 6 10 16 22 23
24 23 21 22 22 23 21 22 24 21 19 21 22 23 23 21 18 14 10 8 7 7 5 5 7 13 18 25
27 24 22 23 23 21 24 22 23 24 23 20 21 24 26 23 21 18 13 10 9 9 7 4 5 10 16 21
25 26 25 23 20 22 24 24 23 25 25 23 21 24 27 26 24 21 16 13 12 11 10 7 5 7 13 18
27 24 24 21 22 25 25 26 26 24 25 26 23 24 27 28 27 23 20 16 15 14 13 10 8 7 10 15
29 27 22 20 23 26 29 27 28 26 24 27 28 25 27 30 30 26 24 20 17 17 15 14 12 9 9 12
29 27 25 23 23 28 30 31 30 27 26 28 29 30 26 30 31 29 26 24 19 20 18 17 16 14 10 11
29 28 27 27 27 28 33 33 32 33 30 29 30 32 31 31 32 32 30 27 24 22 22 20 18 18 15 11
Wind_Direction
264 276 287 289 288 284 275 259 263 265 264 271 236 216 210 195 209 262 307 328 343 349 353 349 343 340 337 334
271 262 273 286 283 282 275 259 259 259 261 252 222 213 215 212 236 271 310 330 341 346 349 346 348 346 342 336
280 266 262 271 279 276 272 263 255 252 255 251 222 214 213 224 247 277 312 329 339 347 351 356 358 352 345 339
279 269 261 258 267 270 270 268 254 250 249 250 228 214 212 227 249 284 312 327 341 350 356 5 3 357 347 343
279 275 263 256 258 263 265 262 260 251 250 242 229 211 216 223 246 276 308 323 339 349 4 7 4 1 353 349
277 272 268 256 256 256 260 261 260 252 249 237 227 215 215 221 236 267 303 314 336 350 6 9 5 4 357 354
284 269 267 256 255 257 256 255 258 253 245 239 227 219 218 222 231 257 299 300 326 350 7 11 9 7 0 357
288 274 264 261 254 255 257 254 250 253 244 240 228 222 219 222 229 247 283 279 313 321 2 12 16 14 6 0
294 280 269 262 258 253 255 255 250 249 245 242 231 224 222 225 228 238 265 265 284 270 341 8 21 21 14 5
296 290 276 265 260 257 254 256 255 249 246 241 235 226 225 228 232 234 249 249 254 249 314 350 16 26 24 13
294 294 280 271 261 257 259 258 256 252 247 241 239 231 225 225 234 237 243 241 242 242 283 328 5 22 25 23
289 291 287 276 265 261 257 260 258 257 247 244 240 236 228 227 232 239 240 239 232 234 260 293 340 12 16 18
283 287 287 281 270 258 256 255 254 255 251 243 240 236 231 229 232 237 240 240 229 231 245 259 302 347 9 11
277 282 286 286 268 260 254 252 253 250 251 247 239 237 231 230 232 235 240 240 233 229 238 252 267 318 350 2
273 276 281 281 264 256 255 249 250 249 247 249 243 237 233 232 233 235 238 240 239 234 232 247 255 279 323 345
273 276 274 272 262 257 255 254 246 248 245 244 247 241 233 233 235 236 238 240 239 236 233 239 249 264 291 324
275 274 269 270 266 259 256 252 250 247 249 244 244 246 240 232 233 237 239 240 240 237 236 234 244 255 271 298
Height
5857 5858 5858 5859 5859 5858 5858 5858 5858 5859 5859 5862 5861 5863 5864 5865 5865 5866 5866 5865 5864 5862 5860 5858 5855 5851 5848 5843
5854 5855 5856 5856 5857 5857 5856 5856 5857 5858 5858 5859 5860 5861 5864 5865 5865 5865 5865 5864 5863 5862 5860 5857 5854 5850 5846 5841
5850 5851 5853 5854 5854 5854 5855 5854 5856 5856 5857 5857 5859 5860 5862 5864 5864 5864 5864 5863 5863 5861 5859 5857 5854 5849 5844 5840
5846 5847 5848 5850 5850 5851 5852 5853 5853 5856 5856 5856 5857 5859 5860 5862 5863 5863 5863 5862 5861 5860 5859 5856 5853 5848 5843 5838
5843 5843 5844 5846 5849 5849 5849 5850 5852 5852 5853 5854 5855 5857 5859 5860 5862 5862 5862 5861 5860 5859 5858 5856 5852 5848 5843 5838
5840 5840 5840 5841 5843 5845 5846 5847 5847 5849 5850 5852 5853 5855 5857 5860 5860 5861 5861 5861 5859 5858 5857 5855 5852 5847 5842 5837
5836 5836 5836 5837 5839 5841 5842 5843 5844 5845 5847 5850 5851 5853 5855 5857 5858 5859 5859 5859 5859 5857 5856 5854 5851 5847 5842 5836
5833 5832 5832 5834 5834 5835 5838 5840 5841 5842 5844 5846 5848 5850 5852 5855 5856 5857 5857 5857 5857 5856 5855 5854 5851 5846 5841 5835
5829 5829 5830 5830 5831 5832 5834 5836 5837 5839 5840 5843 5846 5847 5849 5851 5853 5854 5855 5856 5855 5855 5854 5853 5850 5846 5841 5835
5826 5826 5826 5827 5828 5831 5830 5832 5834 5835 5837 5838 5841 5843 5846 5849 5850 5851 5852 5852 5853 5853 5853 5851 5849 5845 5841 5836
5823 5822 5822 5823 5825 5826 5828 5829 5830 5832 5833 5834 5837 5839 5842 5844 5847 5849 5849 5850 5851 5851 5851 5850 5848 5844 5841 5836
5819 5818 5818 5818 5819 5822 5823 5824 5826 5828 5829 5830 5832 5835 5838 5841 5843 5845 5846 5847 5848 5849 5848 5848 5847 5843 5840 5835
5813 5814 5814 5813 5816 5816 5818 5819 5820 5823 5825 5826 5828 5829 5834 5836 5838 5841 5843 5844 5844 5845 5846 5845 5845 5842 5839 5836
5808 5808 5809 5810 5810 5811 5811 5813 5815 5817 5820 5822 5823 5824 5827 5831 5833 5836 5838 5840 5841 5841 5843 5843 5842 5840 5838 5835
5802 5803 5804 5805 5804 5805 5807 5807 5809 5811 5813 5816 5818 5818 5822 5826 5828 5830 5833 5835 5837 5838 5838 5840 5839 5838 5836 5834
5797 5797 5799 5798 5799 5798 5800 5802 5803 5806 5808 5809 5812 5814 5816 5818 5822 5825 5827 5830 5832 5833 5834 5835 5836 5835 5834 5832
5790 5791 5791 5792 5792 5792 5793 5795 5797 5799 5802 5803 5806 5809 5811 5812 5815 5818 5821 5824 5826 5828 5830 5831 5832 5831 5831 5829